Petersburg, AK

7:13 AM AKDT on May 28, 2017 (GMT -0800)
Johnson Petersburg

Weather History for PAPG - November, 2014

Change the Weather History Date:

Tuesday, November 18, 2014

  Actual Average Record
Temperature  
Mean Temperature 38 °F -  
Max Temperature 46 °F 37 °F 53 °F (2005)
Min Temperature 30 °F 30 °F 11 °F (1985)
Degree Days  
Heating Degree Days 27    
Moisture  
Dew Point 36 °F    
Average Humidity 82    
Maximum Humidity 93    
Minimum Humidity 70    
Precipitation  
Precipitation 0.00 in - - ()
Sea Level Pressure  
Sea Level Pressure 29.94 in    
Wind  
Wind Speed 2 mph (SSW)    
Max Wind Speed 7 mph    
Max Gust Speed -    
Visibility 10 miles    
Events Rain    
Averages and records for this station are not official NWS values.
T = Trace of Precipitation, MM = Missing Value Source: NWS Daily Summary

Daily Weather History Graph

Daily Weather History Graph

Search for Another Location

Airport or City:

Trip Planner

Search our weather history database for the weather conditions in past years. The results will help you decide how hot, cold, wet, or windy it might be!

Date:

Astronomy

Nov. 18, 2014 Rise Set
Actual Time 7:38 AM AKST 3:34 PM AKST
Civil Twilight 6:54 AM AKST 4:18 PM AKST
Nautical Twilight 6:07 AM AKST 5:05 PM AKST
Astronomical Twilight 5:22 AM AKST 5:50 PM AKST
Moon 2:57 AM AKST (11/18) 2:14 PM AKST (11/18)
Length of Visible Light 9h 23m
Length of Day
7h 55m
Waning Crescent, 14% of the Moon is Illuminated
Nov 18
Waning Crescent
Nov 22
New
Nov 29
First Quarter
Dec 6
Full
Dec 14
Last Quarter

Hourly Weather History & Observations

Time (AKST) Temp. Windchill Dew Point Humidity Pressure Visibility Wind Dir Wind Speed Gust Speed Precip Events Conditions
1:16 AM 30.2 °F - 28.4 °F 93% 30.06 in 10.0 mi Calm Calm - N/A   Partly Cloudy
3:07 AM 33.8 °F 30.8 °F 30.2 °F 87% 30.02 in 10.0 mi South 3.5 mph - N/A   Clear
5:04 AM 35.6 °F 32.8 °F 30.2 °F 81% 29.98 in 10.0 mi SSE 3.5 mph - N/A   Clear
6:00 AM 35.6 °F 32.8 °F 30.2 °F 81% 29.97 in 10.0 mi SSE 3.5 mph - N/A   Partly Cloudy
6:56 AM 35.6 °F - 32.0 °F 87% 29.96 in 10.0 mi Calm Calm - N/A   Mostly Cloudy
7:56 AM 37.4 °F - 33.8 °F 87% 29.95 in 10.0 mi Calm Calm - N/A   Mostly Cloudy
8:56 AM 37.4 °F 34.9 °F 32.0 °F 81% 29.94 in 10.0 mi South 3.5 mph - N/A Rain Light Rain
9:56 AM 42.8 °F - 33.8 °F 70% 29.94 in 10.0 mi Calm Calm - N/A Rain Light Rain
10:56 AM 42.8 °F - 35.6 °F 76% 29.94 in 10.0 mi Calm Calm - N/A Rain Light Rain
11:56 AM 42.8 °F 40.1 °F 35.6 °F 76% 29.93 in 10.0 mi SW 4.6 mph - N/A Rain Light Rain
12:56 PM 44.6 °F - 35.6 °F 71% 29.92 in 10.0 mi Calm Calm - N/A Rain Light Rain
1:56 PM 42.8 °F 38.6 °F 37.4 °F 81% 29.91 in 10.0 mi WSW 6.9 mph - N/A Rain Light Rain
2:56 PM 42.8 °F 40.1 °F 39.2 °F 87% 29.91 in 10.0 mi South 4.6 mph - N/A Rain Light Rain
3:56 PM 42.8 °F 40.1 °F 39.2 °F 87% 29.91 in 10.0 mi SW 4.6 mph - N/A Rain Light Rain
4:56 PM 44.6 °F - 39.2 °F 81% 29.90 in 10.0 mi Calm Calm - N/A Rain Light Rain
5:56 PM 44.6 °F - 39.2 °F 81% 29.88 in 10.0 mi Calm Calm - N/A   Overcast
6:56 PM 46.4 °F - 39.2 °F 76% 29.88 in 10.0 mi Calm Calm - N/A   Overcast
7:56 PM 46.4 °F 43.5 °F 41.0 °F 81% 29.97 in 10.0 mi West 5.8 mph - N/A Rain Light Rain
8:56 PM 46.4 °F 43.5 °F 42.8 °F 87% 29.87 in 10.0 mi SSE 5.8 mph - N/A Rain Light Rain
9:56 PM 46.4 °F - 42.8 °F 87% 29.88 in 10.0 mi Calm Calm - N/A Rain Light Rain